Overview Statistics Trail Chart Weather Telemetry Raw packets
 

This is the latest recevied weather packets stored in our database for station/object OK2ZA-6. If no packets are shown the sender has not sent any weather packets the latest 10 day(s).

<< 8 9 10 11 12 13 14 >>
Time Temp. Humidity Pressure Rain* Wind** Luminosity Snow
1788562804 22.78° C 56% 1012.9 hPa 0 mm - - -
1788562204 23.33° C 56% 1012.8 hPa 0 mm - - -
1788561604 23.33° C 55% 1012.7 hPa 0 mm - - -
1788561004 23.33° C 56% 1012.7 hPa 0 mm - - -
1788560404 23.33° C 55% 1012.8 hPa 0 mm - - -
1788559805 23.33° C 55% 1012.6 hPa 0 mm - - -
1788559206 23.33° C 55% 1012.5 hPa 0 mm - - -
1788558604 23.33° C 55% 1012.5 hPa 0 mm - - -
1788558005 23.33° C 54% 1012.5 hPa 0 mm - - -
1788557404 23.33° C 54% 1012.5 hPa 0 mm - - -
1788556804 23.33° C 55% 1012.6 hPa 0 mm - - -
1788556204 22.78° C 55% 1012.6 hPa 0 mm - - -
1788555604 22.78° C 55% 1012.5 hPa 0 mm - - -
1788555004 23.33° C 54% 1012.6 hPa 0 mm - - -
1788554404 23.33° C 52% 1012.6 hPa 0 mm - - -
1788553804 23.89° C 52% 1012.7 hPa 0 mm - - -
1788553204 24.44° C 51% 1012.9 hPa 0 mm - - -
1788552604 24.44° C 50% 1013 hPa 0 mm - - -
1788552004 24.44° C 50% 1013.1 hPa 0 mm - - -
1788551404 24.44° C 50% 1013.1 hPa 0 mm - - -
1788550804 24.44° C 50% 1013.2 hPa 0 mm - - -
1788550204 25° C 49% 1013.2 hPa 0 mm - - -
1788549604 25° C 48% 1013.2 hPa 0 mm - - -
1788549004 25° C 48% 1013.2 hPa 0 mm - - -
1788548404 25.56° C 48% 1013.2 hPa 0 mm - - -

* Rain latest hour (hover to see other rain measurements)
** Current wind speed in m/s (hover to see current wind gust speed)